Weather History for Marathon, FL

Change the Weather History Date:

Monday, October 8, 2012

  Actual Average Record
Temperature  
Mean Temperature 86 °F 82 °F  
Max Temperature 89 °F 87 °F 91 °F (2013)
Min Temperature 82 °F 77 °F 68 °F (2011)
Degree Days  
Heating Degree Days 0 0  
Month to date heating degree days 0 0  
Since 1 July heating degree days 0 0  
Cooling Degree Days 21 17  
Month to date cooling degree days 158 141  
Year to date cooling degree days 4401 4095  
Growing Degree Days 35 (Base 50)    
Moisture  
Dew Point 77 °F    
Average Humidity 78    
Maximum Humidity 88    
Minimum Humidity 68    
Precipitation  
Precipitation 0.00 in 0.19 in 2.32 in (2011)
Month to date precipitation 0.66 1.44  
Year to date precipitation 40.79 37.99  
Snow  
Snow 0.00 in - - ()
Month to date snowfall 0.0  
Since 1 July snowfall 0.0  
Since 1 September snowfall 0.0  
Snow Depth 0.00 in    
Sea Level Pressure  
Sea Level Pressure 29.95 in    
Wind  
Wind Speed 6 mph (ENE)    
Max Wind Speed 15 mph    
Max Gust Speed 18 mph    
Visibility 10 miles    
Events      
T = Trace of Precipitation, MM = Missing Value Source: NWS Daily Summary

Daily Weather History Graph

Daily Weather History Graph

Search for Another Location

Airport:

Trip Planner

Search our weather history database for the weather conditions in past years. The results will help you decide how hot, cold, wet, or windy it might be!

Date:

Astronomy

Oct. 08, 2012 Rise Set
Actual Time 7:19 AM EDT 7:03 PM EDT
Civil Twilight 6:56 AM EDT 7:26 PM EDT
Nautical Twilight 6:29 AM EDT 7:52 PM EDT
Astronomical Twilight 6:03 AM EDT 8:19 PM EDT
Moon 12:38 AM EDT (10/8) 2:13 PM EDT (10/8)
Length of Visible Light 12h 29m
Length of Day
11h 44m
Waning Gibbous, 46% of the Moon is Illuminated
Oct 8
Waning Gibbous
Oct 15
New
Oct 21
First Quarter
Oct 29
Full
Nov 6
Last Quarter

Hourly Weather History & Observations

Time (EDT) Temp. Heat Index Dew Point Humidity Pressure Visibility Wind Dir Wind Speed Gust Speed Precip Events Conditions
12:53 AM 82.0 °F 88.6 °F 75.0 °F 79% 29.94 in 10.0 mi East 6.9 mph - N/A   Clear
1:53 AM 82.9 °F 89.4 °F 73.9 °F 74% 29.93 in 10.0 mi East 5.8 mph - N/A   Clear
2:53 AM 82.0 °F 89.4 °F 75.9 °F 82% 29.91 in 10.0 mi East 6.9 mph - N/A   Clear
3:53 AM 82.9 °F 91.8 °F 77.0 °F 82% 29.90 in 10.0 mi East 5.8 mph - N/A   Partly Cloudy
4:50 AM 82.4 °F 90.9 °F 77.0 °F 84% 29.91 in 10.0 mi East 5.8 mph - N/A   Mostly Cloudy
4:53 AM 82.9 °F 91.8 °F 77.0 °F 82% 29.91 in 10.0 mi ESE 8.1 mph - N/A   Mostly Cloudy
5:05 AM 82.4 °F 90.9 °F 77.0 °F 84% 29.91 in 10.0 mi East 5.8 mph - N/A   Mostly Cloudy
5:12 AM 82.4 °F 92.4 °F 78.8 °F 89% 29.92 in 10.0 mi Variable 4.6 mph - N/A   Mostly Cloudy
5:23 AM 82.4 °F 90.9 °F 77.0 °F 84% 29.92 in 10.0 mi East 5.8 mph - N/A   Scattered Clouds
5:53 AM 82.9 °F 92.8 °F 78.1 °F 85% 29.92 in 10.0 mi Variable 3.5 mph - N/A   Scattered Clouds
6:53 AM 82.9 °F 90.8 °F 75.9 °F 79% 29.94 in 10.0 mi East 4.6 mph - N/A   Clear
7:53 AM 84.0 °F 93.7 °F 77.0 °F 79% 29.96 in 10.0 mi East 4.6 mph - N/A   Partly Cloudy
8:53 AM 86.0 °F 98.3 °F 78.1 °F 77% 29.98 in 10.0 mi East 6.9 mph - N/A   Partly Cloudy
9:53 AM 87.1 °F 98.8 °F 77.0 °F 72% 29.99 in 10.0 mi ENE 6.9 mph - N/A   Partly Cloudy
10:53 AM 88.0 °F 98.5 °F 75.9 °F 67% 30.00 in 10.0 mi ENE 9.2 mph - N/A   Partly Cloudy
11:05 AM 87.8 °F 99.7 °F 77.0 °F 70% 30.00 in 10.0 mi NE 10.4 mph - N/A   Mostly Cloudy
11:53 AM 84.9 °F 96.6 °F 78.1 °F 80% 29.99 in 10.0 mi NNE 11.5 mph - N/A   Mostly Cloudy
12:11 PM 86.0 °F 99.3 °F 78.8 °F 79% 29.99 in 10.0 mi NE 12.7 mph - N/A   Scattered Clouds
12:53 PM 86.0 °F 96.9 °F 77.0 °F 74% 29.98 in 10.0 mi NE 13.8 mph - N/A   Mostly Cloudy
1:11 PM 87.8 °F 102.5 °F 78.8 °F 75% 29.97 in 10.0 mi NE 11.5 mph - N/A   Scattered Clouds
1:53 PM 87.1 °F 99.8 °F 78.1 °F 74% 29.95 in 10.0 mi NE 10.4 mph - N/A   Partly Cloudy
2:53 PM 87.1 °F 98.8 °F 77.0 °F 72% 29.93 in 10.0 mi East 6.9 mph - N/A   Partly Cloudy
3:53 PM 86.0 °F 96.0 °F 75.9 °F 72% 29.91 in 10.0 mi East 4.6 mph - N/A   Scattered Clouds
4:53 PM 84.9 °F 94.1 °F 75.9 °F 74% 29.91 in 10.0 mi East 5.8 mph - N/A   Clear
5:53 PM 84.9 °F 93.3 °F 75.0 °F 72% 29.91 in 10.0 mi East 4.6 mph - N/A   Clear
6:53 PM 84.0 °F 93.7 °F 77.0 °F 79% 29.93 in 10.0 mi Variable 3.5 mph - N/A   Clear
7:53 PM 84.0 °F 92.6 °F 75.9 °F 76% 29.95 in 10.0 mi East 3.5 mph - N/A   Clear
8:53 PM 84.0 °F 93.7 °F 77.0 °F 79% 29.97 in 10.0 mi ENE 4.6 mph - N/A   Clear
9:53 PM 84.0 °F 93.7 °F 77.0 °F 79% 29.99 in 10.0 mi East 4.6 mph - N/A   Partly Cloudy
10:53 PM 82.9 °F 91.8 °F 77.0 °F 82% 29.99 in 10.0 mi East 4.6 mph - N/A   Clear
11:53 PM 82.9 °F 92.8 °F 78.1 °F 85% 29.99 in 10.0 mi Calm Calm - N/A   Scattered Clouds